カタログに戻る

ESSAIM-4

運用中軍事SSO
NORAD 28497·PAYLOAD·🇫🇷 France

打ち上げ Dec 18, 2004 から Guiana Space Centre

Loading…

次のパス (今後24時間)

TLE

最新Source: Space-Track

元期: Sep 14, 2026, 15:18 UTC

1 28497U 04049F   26257.63818528  .00000877  00000-0  10131-3 0  9991
2 28497  98.2383 148.4956 0001896  58.0408 302.0992 14.88296745172763

AllMySatでESSAIM-4をリアルタイム追跡

Download on the App Store